Вернуться в каталог

STARLINK-5633

АктивенСвязьVLEO
NORAD 55410·PAYLOAD·🇺🇸 United States

Запущен Jan 31, 2023 с Vandenberg Space Force Base

Loading…

Ближайшие Пролёты (ближайшие 24 часа)

TLE

СвежийSource: CelesTrak SupGP

Эпоха: Sep 14, 2026, 22:15 UTC

1 55410C 23014V   26257.92756944 -.00007939  00000+0 -66542-3 0  2575
2 55410  70.0012 327.1548 0003447 268.8009  43.7132 14.98328497    14

Отслеживайте STARLINK-5633 в реальном времени с AllMySat

Download on the App Store